Temp
63 63 62 62 62 62 62 62 62 62 62 62 62 62 62 62 61 76 89 88 90 75 74 100 99 100 102 100 102 103 89 89 88 89 90 98 94 99 99 93 94 94 95 94 95
62 62 62 62 62 61 61 62 62 62 62 62 62 62 62 62 77 90 81 78 77 75 96 95 94 99 96 98 99 95 91 91 97 97 95 97 95 95 93 92 90 90 93 94 95
61 62 62 62 61 61 61 61 62 62 62 62 61 61 61 66 83 94 76 76 76 81 101 103 102 99 95 98 97 97 91 95 95 98 100 97 96 99 91 80 92 87 89 92 93
61 61 61 61 61 61 61 61 61 62 61 61 61 61 61 77 80 96 77 76 77 94 101 99 98 92 92 91 98 90 95 97 97 98 97 95 98 93 95 93 98 95 94 94 92
60 60 61 60 60 61 61 61 61 61 60 60 61 61 72 85 92 94 77 79 93 96 98 97 94 94 89 95 96 93 95 97 98 98 98 98 95 92 94 97 98 97 95 93 93
59 60 60 60 60 60 60 60 59 59 59 60 61 60 80 83 102 99 98 96 99 98 98 100 97 99 94 95 94 96 96 96 98 97 96 94 94 95 93 98 95 94 93 94 93
59 59 59 59 60 60 60 59 58 59 61 61 62 76 85 90 102 103 101 100 102 101 97 102 103 96 98 93 98 95 90 93 95 96 93 97 88 89 96 96 92 93 93 93 93
59 59 59 59 59 60 60 59 58 59 63 62 63 83 86 101 105 101 102 100 103 104 102 102 102 98 97 99 93 90 92 84 93 94 95 94 84 92 97 95 91 92 92 92 93
59 58 59 59 59 59 59 58 59 62 65 64 76 85 87 85 94 101 102 97 100 101 101 99 99 95 95 87 83 86 80 84 86 96 93 92 86 92 98 95 91 91 90 91 91
59 58 58 58 59 58 58 58 63 64 69 84 88 83 92 90 98 98 102 102 96 96 93 92 93 88 89 86 73 78 80 83 83 91 92 90 88 92 95 95 92 91 90 90 89
59 58 58 58 58 58 66 87 84 80 88 86 88 89 91 98 99 96 99 97 97 92 83 90 84 79 86 89 91 88 85 84 89 93 89 88 89 90 93 93 93 93 91 91 89
58 58 58 58 58 58 72 87 82 86 75 91 92 92 95 97 88 93 99 88 88 82 87 85 79 88 93 92 88 87 84 84 88 90 88 87 86 90 92 92 94 93 93 93 92
57 57 57 57 58 73 88 85 94 93 77 86 93 91 92 94 88 90 94 91 86 82 84 80 86 91 88 85 81 82 83 84 83 87 90 87 83 85 91 92 92 92 94 95 94
57 57 57 55 71 86 87 92 96 92 72 80 84 89 93 93 84 97 97 91 86 81 85 84 92 87 84 81 84 78 89 89 85 81 75 87 69 82 87 87 89 91 92 94 95
57 57 56 54 74 82 88 94 93 86 58 83 85 99 95 87 89 87 97 92 82 83 84 81 85 83 82 85 89 84 91 88 87 82 81 81 77 77 88 84 87 90 93 95 96
57 57 56 77 83 88 92 92 86 68 58 77 86 83 84 87 86 90 86 90 90 85 87 87 95 90 89 92 92 91 87 87 86 83 72 79 78 80 81 85 88 92 94 95 96
56 56 59 76 80 92 91 84 68 62 80 75 78 83 83 81 83 82 79 74 75 68 71 81 85 92 93 87 90 88 81 70 68 70 68 82 77 81 86 89 90 92 94 95 96
55 55 70 82 88 89 84 74 58 71 74 82 79 81 77 83 83 81 76 71 80 80 78 73 71 85 90 88 83 84 81 74 60 65 72 81 72 83 91 92 93 96 96 95 94
53 81 84 89 90 85 76 65 67 73 78 75 78 74 75 81 82 81 78 72 76 78 71 75 76 90 90 92 90 82 78 88 76 77 73 73 80 87 90 90 91 93 94 93 94
66 74 81 91 88 80 71 61 74 79 77 78 69 75 70 76 77 78 77 82 76 81 84 77 72 86 89 93 93 87 90 75 78 63 61 73 75 75 81 85 89 90 92 93 95
67 73 84 91 85 76 67 72 77 82 78 74 72 71 73 74 78 76 77 83 85 81 85 77 76 77 83 82 81 83 81 81 80 76 66 63 68 85 84 88 88 92 93 94 95
72 66 86 88 71 75 72 76 63 79 80 75 77 73 72 75 74 76 75 80 88 87 78 81 75 70 76 88 92 88 83 81 72 68 74 73 68 89 88 90 89 91 93 94 92
68 74 87 83 66 72 77 77 77 77 76 72 73 77 76 72 67 77 79 85 85 85 80 83 74 68 71 79 84 80 84 84 81 77 65 69 70 90 90 89 90 89 91 92 90
69 67 75 77 78 71 72 73 73 80 77 75 73 77 72 72 77 72 77 81 83 84 68 76 75 71 65 71 79 75 80 83 79 71 72 74 75 82 85 85 88 88 89 92 91
70 69 70 69 72 73 73 74 72 71 77 76 70 73 72 66 70 72 76 76 80 70 78 78 68 73 77 81 81 81 80 81 77 79 72 74 75 80 83 84 86 87 88 88 88
66 69 75 70 69 69 63 69 70 73 72 70 67 74 74 66 69 66 72 73 75 78 78 78 69 75 73 81 80 75 80 82 81 80 78 80 78 86 85 86 85 84 86 85 84
77 73 67 63 69 69 70 71 71 73 75 77 74 69 68 71 72 74 76 76 77 75 74 73 73 71 66 77 76 70 78 78 80 82 81 74 79 85 82 81 82 81 84 83 83
MSLP
1020.29 1019.93 1019.56 1019.06 1018.51 1018.03 1017.50 1016.94 1016.53 1016.10 1015.63 1015.14 1014.68 1014.20 1013.90 1013.65 1013.02 1012.35 1009.64 1008.42 1008.27 1008.76 1009.14 1007.71 1007.34 1006.47 1005.68 1004.59 1003.89 1002.90 1000.81 998.75 999.25 999.24 1000.54 1001.86 1002.01 1003.21 1004.48 1005.15 1005.80 1006.37 1006.56 1008.50 1009.90
1020.32 1019.95 1019.56 1019.01 1018.43 1017.93 1017.32 1016.70 1016.23 1015.77 1015.27 1014.87 1014.40 1013.95 1013.77 1013.58 1012.01 1009.40 1008.60 1008.43 1008.82 1008.90 1008.30 1007.13 1006.31 1005.69 1004.83 1003.73 1003.13 1002.12 999.81 999.09 999.73 999.94 1000.06 1001.19 1001.67 1003.11 1003.67 1004.78 1006.11 1007.02 1008.25 1009.29 1009.88
1020.42 1019.95 1019.43 1018.89 1018.30 1017.68 1016.99 1016.47 1015.91 1015.31 1014.90 1014.62 1014.09 1013.74 1013.59 1013.34 1010.49 1007.29 1008.34 1008.62 1008.89 1008.94 1007.34 1006.24 1005.37 1004.95 1003.69 1003.37 1002.45 1001.37 999.84 1000.37 1000.93 1001.04 1000.72 1001.13 1001.75 1002.86 1003.48 1005.32 1005.34 1007.08 1008.36 1009.24 1009.67
1020.53 1019.91 1019.27 1018.64 1018.06 1017.45 1016.73 1016.16 1015.66 1015.01 1014.53 1014.25 1013.78 1013.57 1013.32 1012.29 1008.05 1007.61 1008.57 1008.79 1009.05 1008.54 1007.10 1006.04 1005.12 1004.46 1003.16 1002.73 1002.16 1001.44 1001.13 1000.83 1001.14 1001.77 1001.46 1001.27 1001.84 1003.00 1003.44 1004.62 1005.40 1007.00 1008.13 1008.98 1009.47
1020.48 1019.92 1019.23 1018.43 1017.79 1017.12 1016.37 1015.75 1015.13 1014.59 1014.09 1013.78 1013.48 1013.38 1012.71 1009.67 1006.64 1007.84 1008.66 1008.96 1008.71 1008.24 1006.56 1005.51 1004.78 1003.96 1002.81 1002.15 1002.28 1001.56 1001.45 1001.53 1001.65 1001.83 1001.64 1001.75 1002.14 1002.80 1003.62 1005.16 1005.97 1007.01 1008.00 1008.74 1009.20
1020.33 1019.72 1019.07 1018.26 1017.50 1016.80 1016.14 1015.46 1014.79 1014.15 1013.66 1013.35 1013.18 1013.29 1011.40 1007.70 1006.36 1007.27 1007.64 1008.07 1007.42 1007.11 1006.09 1005.21 1004.43 1003.63 1002.71 1001.96 1002.04 1001.44 1001.69 1001.66 1001.80 1001.75 1002.22 1001.94 1002.29 1003.03 1004.37 1005.27 1006.23 1007.07 1007.81 1008.54 1009.00
1020.30 1019.67 1018.86 1018.08 1017.28 1016.38 1015.70 1014.98 1014.36 1013.75 1013.12 1012.86 1012.92 1012.23 1009.52 1006.68 1006.20 1006.70 1006.97 1007.01 1006.71 1006.34 1005.34 1004.88 1004.31 1003.82 1002.61 1002.14 1002.36 1002.25 1002.11 1001.87 1001.91 1001.87 1002.19 1002.06 1002.57 1002.87 1004.32 1005.22 1006.29 1006.88 1007.61 1008.35 1008.92
1020.22 1019.56 1018.81 1017.91 1016.92 1016.09 1015.18 1014.53 1013.97 1013.45 1012.97 1012.80 1012.78 1011.20 1007.36 1006.40 1006.16 1006.44 1006.57 1006.57 1006.50 1006.16 1005.67 1005.29 1005.34 1004.29 1003.05 1002.68 1003.07 1002.35 1001.79 1001.29 1001.49 1002.00 1002.17 1002.33 1001.49 1003.07 1004.24 1004.98 1005.88 1006.71 1007.50 1008.23 1008.82
1020.13 1019.37 1018.56 1017.65 1016.63 1015.57 1014.68 1013.92 1013.32 1013.00 1012.71 1012.74 1011.98 1009.83 1006.31 1007.17 1006.26 1005.91 1006.10 1005.95 1006.17 1006.14 1006.00 1006.07 1005.42 1004.09 1003.47 1002.98 1002.62 1002.15 1001.22 1000.64 1001.16 1001.73 1001.74 1001.81 1001.25 1002.90 1003.72 1004.20 1005.33 1006.52 1007.47 1008.00 1008.63
1019.97 1019.29 1018.35 1017.42 1016.24 1015.02 1013.93 1013.16 1012.91 1012.97 1012.47 1011.32 1010.11 1008.62 1006.18 1005.22 1005.20 1005.66 1005.87 1005.65 1005.73 1005.66 1005.51 1005.50 1004.65 1003.63 1002.82 1002.27 1001.46 1001.08 1000.97 1000.36 1000.44 1001.64 1001.75 1001.46 1001.37 1002.81 1003.41 1003.83 1004.58 1006.17 1007.23 1007.69 1008.39
1019.81 1019.04 1018.30 1017.25 1015.94 1014.59 1013.52 1011.97 1012.02 1011.59 1009.69 1007.96 1006.91 1005.88 1005.08 1004.98 1005.65 1005.42 1005.76 1005.70 1005.36 1005.19 1004.72 1004.57 1003.63 1002.55 1001.84 1001.45 1000.53 1000.38 1000.71 999.99 1000.22 1001.07 1001.37 1001.03 1001.15 1002.28 1003.34 1003.82 1003.97 1004.82 1006.17 1007.13 1008.08
1019.94 1019.13 1018.11 1016.88 1015.69 1014.36 1013.55 1011.13 1011.68 1011.35 1009.06 1006.75 1005.92 1005.55 1005.11 1004.92 1004.68 1004.87 1005.41 1005.40 1004.90 1004.26 1004.16 1003.50 1002.65 1001.90 1001.34 1001.32 1001.14 1000.43 1000.03 999.85 1000.39 1001.43 1001.61 1001.27 1001.49 1002.09 1002.84 1003.30 1003.63 1004.24 1004.93 1005.63 1006.76
1020.00 1019.21 1018.36 1016.78 1015.14 1013.70 1012.27 1011.66 1011.17 1010.59 1008.79 1004.97 1004.34 1004.41 1004.47 1005.18 1004.16 1004.11 1004.90 1004.81 1004.19 1003.81 1003.10 1002.47 1001.75 1001.82 1001.14 1001.55 1001.65 1001.14 999.87 999.57 1000.44 1001.57 1001.55 1001.20 1001.25 1001.87 1002.53 1003.17 1003.98 1004.47 1004.76 1005.01 1005.88
1019.97 1019.31 1018.62 1017.32 1014.79 1013.31 1011.33 1011.45 1011.01 1010.76 1007.87 1004.02 1003.77 1003.50 1003.85 1004.41 1004.14 1003.58 1004.38 1004.39 1003.88 1003.41 1002.73 1002.40 1001.35 1001.17 1001.78 1001.46 1001.48 1000.48 1000.20 999.92 1000.41 1001.15 1000.82 1001.37 1000.92 1001.53 1001.75 1002.72 1003.48 1004.04 1004.68 1004.89 1005.41
1019.87 1019.25 1018.70 1018.49 1016.36 1013.32 1012.08 1011.66 1011.45 1010.72 1006.21 1003.48 1002.94 1003.31 1003.11 1003.51 1002.90 1003.81 1003.91 1004.07 1003.53 1003.20 1002.92 1001.73 1001.15 1001.42 1001.06 1000.66 1000.79 999.88 1000.03 1000.27 1000.23 1000.74 1000.56 1000.79 1000.72 1000.73 1001.16 1001.55 1002.26 1003.15 1003.72 1004.38 1005.04
1019.50 1019.06 1018.78 1015.90 1014.92 1012.84 1012.43 1011.86 1011.30 1009.09 1004.85 1002.94 1002.65 1002.85 1002.86 1002.92 1002.99 1003.30 1004.19 1004.54 1004.13 1003.13 1002.45 1001.06 1000.81 1000.94 1000.51 1000.22 1000.11 1000.42 1000.39 1000.45 1000.42 1000.57 1000.26 1000.22 1000.41 999.27 1000.18 1000.91 1001.32 1002.18 1003.00 1003.92 1004.59
1019.10 1018.48 1018.44 1016.72 1013.71 1012.75 1012.53 1011.38 1009.26 1006.37 1004.16 1002.97 1002.37 1002.53 1002.37 1002.33 1002.55 1003.61 1003.84 1004.18 1003.86 1003.54 1002.18 1001.63 1000.50 1000.18 999.96 999.62 1000.06 1000.37 1000.21 1000.21 1000.34 1000.05 999.71 999.75 1000.13 999.65 1000.86 1001.31 1001.38 1001.73 1002.53 1003.56 1004.36
1018.73 1017.63 1015.31 1014.52 1013.63 1013.20 1012.49 1010.64 1007.73 1005.24 1003.76 1003.43 1003.59 1002.95 1002.14 1001.62 1001.95 1002.79 1003.61 1003.88 1003.88 1003.10 1001.63 1001.19 1000.36 1000.16 1000.08 999.42 999.74 999.83 999.96 998.76 999.14 999.14 999.02 999.90 999.89 999.68 1000.20 1001.24 1001.70 1001.67 1002.35 1003.49 1004.41
1018.19 1015.06 1013.30 1012.34 1012.77 1013.17 1011.87 1008.78 1006.10 1004.87 1004.68 1004.29 1003.79 1002.73 1002.08 1001.75 1001.43 1001.86 1002.47 1003.48 1003.43 1003.36 1002.41 1000.65 999.58 999.68 999.83 999.47 999.53 999.66 999.28 999.20 999.08 999.56 999.50 999.95 999.86 1000.10 1000.61 1001.18 1001.77 1001.93 1002.71 1003.53 1004.18
1018.01 1014.98 1012.13 1011.41 1012.46 1012.51 1010.73 1007.76 1005.55 1005.23 1005.64 1004.87 1004.02 1003.11 1001.81 1001.51 1001.47 1001.36 1001.58 1002.01 1003.03 1003.14 1002.80 1001.43 999.85 999.07 999.41 999.43 998.92 998.81 999.35 999.64 999.75 999.58 999.50 999.10 999.21 999.66 1000.62 1001.09 1001.99 1002.43 1002.86 1003.48 1003.85
1017.59 1013.37 1011.18 1011.29 1012.07 1010.92 1008.57 1006.63 1005.66 1005.50 1006.12 1005.61 1004.79 1004.39 1003.28 1002.26 1001.24 1001.35 1001.26 1001.25 1001.82 1002.47 1002.57 1002.60 1001.52 1000.06 999.77 999.54 999.00 999.43 999.03 999.59 999.83 1000.14 999.72 1000.08 999.92 1000.41 1000.60 1001.08 1001.56 1002.10 1002.43 1002.86 1002.93
1016.11 1012.48 1010.89 1011.22 1010.56 1008.84 1007.31 1006.33 1006.23 1005.62 1006.13 1006.14 1005.55 1005.73 1004.68 1003.52 1002.25 1001.43 1001.27 1001.06 1001.43 1001.81 1002.02 1002.34 1001.78 1000.31 1000.05 999.70 999.19 999.25 999.40 999.87 1000.18 1000.61 1000.63 1000.50 1001.43 1001.50 1001.78 1001.97 1002.49 1002.61 1002.99 1003.80 1004.60
1014.89 1011.72 1010.55 1010.82 1008.84 1007.32 1006.62 1005.91 1006.14 1006.07 1005.99 1006.21 1005.83 1005.66 1005.32 1004.65 1003.86 1001.93 1001.40 1001.54 1001.85 1001.64 1001.85 1002.20 1001.88 1000.78 1000.31 1000.49 1000.03 999.61 999.25 999.44 1000.44 1001.09 1001.77 1000.64 1001.11 1001.68 1002.06 1002.25 1003.05 1003.59 1004.06 1004.39 1005.12
1015.14 1011.16 1010.10 1009.99 1008.92 1007.82 1006.28 1005.98 1005.82 1006.03 1006.11 1006.36 1006.39 1006.07 1005.90 1005.11 1004.03 1003.15 1002.08 1002.24 1002.71 1002.65 1003.09 1002.85 1002.20 1001.10 1000.11 999.86 999.81 1000.13 999.92 999.93 1000.31 1001.00 1000.54 1000.77 1001.08 1001.73 1002.08 1002.72 1003.21 1004.19 1004.78 1004.78 1005.53
1014.90 1011.37 1010.88 1008.76 1008.23 1007.81 1007.38 1006.24 1005.55 1005.63 1006.30 1006.48 1006.57 1006.31 1005.60 1005.65 1004.80 1003.66 1003.10 1003.03 1003.23 1003.25 1003.14 1003.06 1002.37 1001.88 1000.89 999.87 999.63 999.39 999.47 999.98 1000.25 1000.66 1000.60 1000.94 1001.51 1001.65 1002.63 1003.54 1004.18 1005.02 1005.31 1005.62 1006.33
1014.50 1012.44 1011.32 1010.15 1009.48 1008.59 1007.63 1007.08 1006.21 1005.80 1006.38 1006.09 1006.59 1005.81 1006.06 1006.42 1005.68 1005.41 1004.86 1003.94 1002.80 1003.46 1003.07 1003.04 1002.51 1002.05 1001.11 1000.17 1000.13 1000.00 999.34 999.56 999.90 1000.29 1001.02 1000.88 1001.22 1002.27 1004.28 1004.48 1004.97 1005.69 1005.88 1006.40 1007.52
1014.71 1014.36 1013.57 1010.47 1009.41 1008.49 1007.21 1007.10 1006.55 1006.67 1006.63 1006.35 1006.45 1006.95 1006.79 1006.75 1006.95 1006.83 1006.05 1005.41 1004.55 1003.78 1003.20 1003.16 1002.69 1001.84 1001.30 1001.11 1000.82 1000.03 999.44 1000.43 999.99 1000.60 1000.87 1001.33 1002.12 1003.32 1004.26 1005.14 1005.93 1006.62 1006.86 1007.44 1008.49
Wind_Speed
16 16 16 17 17 17 17 16 16 16 15 16 16 15 14 13 15 12 12 5 5 12 5 11 12 13 10 14 11 13 14 10 2 10 15 11 14 10 10 10 11 3 15 18 17
17 17 16 17 18 18 18 17 17 16 15 15 15 15 13 11 13 15 6 8 6 9 13 12 13 13 14 13 8 13 13 12 7 6 16 8 14 13 12 15 13 16 19 18 16
17 18 18 18 18 19 19 18 18 18 16 15 16 14 11 12 11 10 7 8 7 10 16 15 11 15 13 11 13 16 8 7 5 5 7 13 5 13 12 15 18 18 18 18 16
17 19 19 20 19 19 20 20 19 20 18 16 15 14 9 11 3 11 8 9 4 11 13 10 10 15 13 13 9 8 4 1 5 7 6 6 15 10 10 10 15 19 20 18 16
17 18 20 21 21 20 21 21 20 20 19 16 13 12 9 11 8 12 10 7 9 13 15 13 13 16 15 16 11 15 8 5 7 6 4 2 6 13 15 11 16 20 19 18 15
17 18 19 21 22 22 21 21 20 19 18 14 11 8 9 13 8 13 14 13 12 14 12 13 11 17 15 9 15 2 8 7 8 8 6 11 10 7 12 14 16 19 19 17 16
17 18 21 21 22 24 23 21 20 18 15 9 8 7 10 3 4 10 11 12 12 13 10 7 11 6 7 10 1 6 10 8 7 7 7 10 9 9 12 14 15 17 16 16 14
18 19 21 23 24 24 24 21 19 15 8 3 6 9 7 4 1 9 11 11 9 9 11 3 8 13 12 7 10 13 17 13 12 9 7 12 14 16 14 15 16 15 14 14 14
18 21 22 23 25 26 24 21 16 10 6 5 8 9 7 5 10 10 11 14 13 10 7 4 11 15 12 11 14 14 12 18 13 13 9 13 15 12 11 14 16 14 14 14 13
19 21 23 25 26 27 26 16 2 7 8 9 10 9 8 11 11 8 10 13 14 11 10 11 10 11 12 14 15 18 19 10 12 13 11 11 8 11 9 11 17 15 13 13 13
20 22 23 25 27 28 17 6 6 8 13 14 10 8 2 4 7 11 14 14 17 12 15 16 14 15 19 18 18 11 16 22 13 16 13 10 8 14 11 10 11 16 16 13 14
20 22 25 28 28 27 12 8 7 8 13 15 12 13 6 5 11 15 16 15 15 16 17 14 17 17 17 16 12 16 18 12 11 10 14 9 9 9 10 13 11 12 12 15 17
18 20 23 29 30 14 9 5 9 12 9 12 11 15 14 12 15 18 18 18 15 16 17 15 18 18 10 10 10 16 15 12 13 11 13 8 13 11 11 7 5 3 5 4 6
17 19 20 30 9 15 6 8 12 8 9 10 11 9 12 14 14 10 19 16 8 15 16 16 17 11 13 16 17 15 15 12 16 14 14 13 4 11 15 12 11 10 11 12 8
17 18 17 11 12 9 12 12 14 7 9 7 9 8 13 19 12 15 14 21 17 14 15 16 18 15 18 21 21 15 14 12 16 14 10 15 10 20 13 16 16 13 13 8 8
18 17 17 5 10 12 12 14 10 10 9 2 3 10 15 18 9 15 14 17 12 17 17 21 14 15 18 19 18 6 11 10 9 12 12 12 9 6 9 9 4 12 12 10 11
21 20 14 10 9 13 11 9 10 11 6 4 2 6 16 17 14 11 16 16 15 11 14 17 12 13 14 16 10 14 12 8 9 13 10 15 8 11 12 8 4 10 14 11 11
21 26 9 10 11 11 10 10 13 10 6 3 6 9 13 17 15 17 14 15 20 18 13 16 17 23 14 15 13 18 16 12 13 13 13 11 9 8 11 6 4 7 11 13 12
26 11 10 11 4 6 10 11 15 10 9 5 14 15 15 17 12 14 18 16 16 18 14 13 16 20 19 18 18 17 17 16 9 5 7 15 6 11 9 8 6 9 13 14 12
10 12 14 3 2 7 10 16 17 2 5 6 14 6 13 16 17 14 16 17 20 21 15 12 13 23 13 18 13 11 13 6 7 9 12 10 9 11 9 11 11 8 11 12 12
8 7 8 7 6 8 12 14 14 7 3 6 7 7 12 17 16 16 17 9 19 20 17 12 11 11 15 15 15 9 8 9 4 8 3 9 6 12 10 6 5 11 16 17 17
9 9 8 5 9 9 13 17 6 9 8 6 3 9 10 11 16 15 14 12 11 19 21 16 6 9 17 20 15 15 14 13 8 12 8 10 6 10 10 10 2 8 3 3 5
7 9 7 6 9 11 12 11 7 12 8 4 7 8 5 8 7 13 11 7 2 13 11 14 8 11 14 5 7 12 11 7 11 3 12 12 9 9 9 9 6 5 6 3 6
6 6 8 8 12 11 12 12 14 9 10 6 8 7 11 7 8 8 8 3 4 11 4 2 11 15 7 13 13 15 17 13 8 8 11 11 13 11 10 4 8 4 5 4 6
6 3 6 5 12 12 12 11 12 9 10 6 8 16 8 11 12 7 10 7 6 3 5 6 12 12 18 15 15 21 18 17 16 15 12 4 4 12 9 5 7 1 0 3 6
7 4 2 9 5 7 7 12 11 4 4 9 11 9 9 9 14 12 12 13 6 6 10 7 8 16 17 17 13 10 19 19 16 12 6 6 3 18 8 3 3 2 2 7 9
2 5 6 3 10 10 11 13 7 2 8 9 4 3 9 6 2 4 5 8 10 9 9 9 11 13 15 13 14 14 11 20 12 8 10 7 6 11 4 3 1 2 2 8 9
Wind_Direction
345 339 335 331 327 323 321 323 321 319 315 312 310 309 304 303 292 231 235 27 163 158 199 212 211 213 217 229 239 243 266 186 119 121 128 177 138 91 114 133 71 50 107 119 148
342 338 331 327 324 322 320 321 317 316 314 310 307 306 304 309 274 240 117 116 137 168 210 193 200 195 202 221 216 239 257 67 36 39 130 160 129 125 168 129 115 101 106 129 147
338 334 329 324 323 322 319 319 316 316 314 308 306 303 302 297 265 99 125 123 179 212 253 213 201 205 204 207 223 236 263 101 148 49 318 114 140 129 85 299 136 135 137 143 152
335 332 326 323 322 320 318 316 316 316 313 306 302 298 301 251 323 99 132 128 158 239 246 229 225 218 216 205 189 254 32 214 129 160 221 155 110 146 65 66 107 143 148 148 153
331 328 323 321 321 320 317 317 317 313 309 301 296 296 273 222 69 129 147 164 201 222 222 206 210 217 221 201 194 246 156 190 155 176 251 57 199 127 101 107 123 144 153 155 157
329 325 322 322 320 318 315 316 316 312 306 291 279 285 248 251 98 132 174 179 212 215 219 220 214 228 252 196 211 101 167 168 181 171 199 222 117 218 114 132 133 150 161 163 165
327 323 323 322 320 318 316 317 314 314 307 282 252 254 262 325 98 153 174 200 216 214 227 241 297 232 246 197 215 180 193 186 186 176 141 246 143 138 136 144 148 158 165 164 182
327 324 323 323 321 317 317 312 309 304 317 264 239 251 281 105 207 179 186 197 216 233 290 136 243 258 251 151 204 204 228 197 163 163 149 238 180 121 158 146 162 158 160 165 187
328 325 324 324 320 319 316 309 299 283 272 227 233 235 234 127 206 185 196 202 192 209 211 276 243 230 207 204 202 220 211 229 145 197 165 229 120 132 182 181 155 166 165 175 171
329 328 326 324 321 319 318 293 343 251 221 222 261 260 219 217 156 161 187 219 191 202 211 225 218 221 220 212 204 205 234 233 173 178 237 199 130 135 178 200 151 164 182 178 174
330 330 326 324 322 319 324 242 232 190 225 284 318 269 148 135 163 183 177 207 202 203 216 205 220 214 207 212 242 236 208 226 199 165 211 204 145 155 165 207 175 171 174 191 183
328 330 329 324 321 316 287 10 41 335 295 280 250 248 257 311 192 178 179 201 203 209 216 190 229 221 238 202 236 275 208 205 122 167 242 140 226 144 172 198 195 187 201 185 181
327 329 330 322 319 296 328 15 324 320 264 280 206 224 209 205 233 178 188 211 201 225 211 237 210 234 245 210 208 232 239 171 170 195 230 181 225 175 182 179 185 245 260 171 178
327 328 331 327 296 334 290 348 325 338 270 154 192 207 188 191 227 230 187 218 235 234 237 227 250 194 210 216 212 212 234 212 208 184 211 213 249 216 185 181 192 198 200 213 173
324 326 326 320 311 308 352 320 323 262 277 100 122 101 176 205 127 193 195 221 233 210 230 223 237 196 208 205 204 253 177 237 213 197 199 186 260 179 176 179 189 196 179 212 158
320 320 331 296 263 269 306 315 280 234 243 92 145 184 182 213 181 150 185 224 249 269 233 251 208 201 216 212 207 166 184 205 212 220 235 253 220 220 144 191 161 178 189 183 157
317 309 304 296 284 332 313 278 239 243 81 233 173 209 200 196 179 176 185 199 227 217 232 228 212 219 240 185 170 205 178 192 206 219 232 215 178 290 181 153 189 185 182 166 152
314 307 274 245 295 299 283 242 254 281 284 36 286 290 255 208 205 174 198 199 223 238 201 214 203 205 200 203 184 199 196 233 186 210 224 168 212 251 78 113 210 209 167 155 169
307 288 268 249 206 275 259 231 229 214 286 329 287 251 212 242 221 188 190 200 227 239 261 230 224 192 193 217 194 211 225 247 304 259 268 190 222 152 162 143 185 171 154 159 180
312 296 261 157 222 225 241 247 270 98 327 268 287 335 294 204 210 219 191 197 197 227 236 294 276 171 195 212 240 276 206 223 244 279 248 230 197 108 151 145 161 184 172 176 192
271 254 108 158 199 224 237 231 235 153 262 265 290 299 322 295 201 223 231 186 196 206 227 259 274 207 173 212 203 207 216 230 319 291 321 269 106 65 108 106 150 191 191 201 202
278 250 130 188 228 228 238 232 360 274 193 267 310 284 284 315 306 228 207 235 194 208 207 223 278 226 196 214 231 224 221 196 247 216 276 308 116 108 136 125 125 321 77 49 282
261 273 150 229 242 232 221 254 238 241 209 242 259 236 318 304 315 276 220 84 137 236 204 219 239 232 175 198 222 266 210 230 210 192 205 253 113 148 119 115 89 57 43 332 12
272 243 197 208 264 297 285 217 228 212 257 231 253 272 269 270 278 269 254 145 212 228 63 354 239 251 224 218 199 221 239 236 194 233 244 231 140 176 154 143 114 62 355 8 62
243 254 17 187 222 222 256 285 223 209 200 194 238 245 246 244 279 282 279 138 211 164 234 223 235 251 257 266 273 198 212 210 215 223 256 123 310 120 81 80 70 321 47 56 74
298 306 336 278 306 257 231 246 253 220 243 213 232 220 205 245 253 299 347 356 157 182 207 216 236 235 244 250 268 202 223 208 211 232 269 277 174 105 108 45 39 34 283 110 95
96 256 268 244 220 243 233 222 239 307 244 279 304 296 261 238 337 308 316 284 298 296 206 202 230 218 224 223 243 247 226 206 235 239 229 238 92 97 117 63 15 98 75 104 109